TimeCST,TemperatureF,Dew PointF,Humidity,Sea Level PressureIn,VisibilityMPH,Wind Direction,Wind SpeedMPH,Gust SpeedMPH,PrecipitationIn,Events,Conditions,WindDirDegrees,DateUTC
12:15 AM,-22.4,-28.3,74,30.45,10.0,Calm,Calm,-,N/A,,Clear,0,2014-01-09 06:15:00
12:35 AM,-22.7,-28.3,75,30.44,10.0,Calm,Calm,-,N/A,,Clear,0,2014-01-09 06:35:00
12:55 AM,-21.6,-27.4,75,30.43,10.0,ESE,3.5,-,N/A,,Clear,120,2014-01-09 06:55:00
1:15 AM,-23.1,-28.8,74,30.43,10.0,Calm,Calm,-,N/A,,Clear,0,2014-01-09 07:15:00
1:35 AM,-21.3,-27.4,73,30.44,10.0,Calm,Calm,-,N/A,,Clear,0,2014-01-09 07:35:00
1:55 AM,-23.4,-29.2,74,30.43,10.0,Calm,Calm,-,N/A,,Clear,0,2014-01-09 07:55:00
2:15 AM,-23.8,-29.6,74,30.42,10.0,ESE,4.6,-,N/A,,Clear,110,2014-01-09 08:15:00
2:35 AM,-24.0,-29.9,74,30.42,10.0,Calm,Calm,-,N/A,,Clear,0,2014-01-09 08:35:00
2:55 AM,-22.9,-28.8,74,30.41,10.0,East,4.6,-,N/A,,Clear,100,2014-01-09 08:55:00
3:15 AM,-14.6,-19.3,79,30.40,10.0,ESE,4.6,-,N/A,,Scattered Clouds,110,2014-01-09 09:15:00
3:35 AM,-10.7,-15.2,80,30.38,10.0,ESE,5.8,-,N/A,,Mostly Cloudy,110,2014-01-09 09:35:00
3:55 AM,-8.1,-12.6,81,30.36,10.0,ESE,4.6,-,N/A,,Overcast,120,2014-01-09 09:55:00
4:15 AM,-5.8,-10.3,81,30.36,10.0,ESE,5.8,-,N/A,,Overcast,110,2014-01-09 10:15:00
4:35 AM,-5.4,-9.9,81,30.35,10.0,SE,4.6,-,N/A,,Overcast,130,2014-01-09 10:35:00
4:55 AM,-4.9,-9.4,81,30.35,10.0,SSE,4.6,-,N/A,,Overcast,150,2014-01-09 10:55:00
5:15 AM,-4.0,-8.9,80,30.35,10.0,SSE,8.1,-,N/A,,Overcast,160,2014-01-09 11:15:00
5:35 AM,-2.9,-8.5,77,30.35,10.0,SSE,8.1,-,N/A,,Overcast,150,2014-01-09 11:35:00
5:55 AM,-2.2,-8.3,75,30.34,10.0,SE,5.8,-,N/A,,Overcast,140,2014-01-09 11:55:00
6:15 AM,-1.1,-7.6,74,30.33,10.0,SE,5.8,-,N/A,,Overcast,140,2014-01-09 12:15:00
6:35 AM,-0.4,-7.4,72,30.31,10.0,SE,9.2,-,N/A,,Overcast,140,2014-01-09 12:35:00
6:55 AM,-0.4,-7.6,72,30.30,10.0,SE,11.5,-,N/A,,Overcast,130,2014-01-09 12:55:00
7:15 AM,-0.0,-7.2,72,30.29,10.0,SE,10.4,-,N/A,,Overcast,140,2014-01-09 13:15:00
7:35 AM,0.3,-7.2,70,30.28,10.0,SE,10.4,-,N/A,,Overcast,130,2014-01-09 13:35:00
7:55 AM,0.5,-6.9,71,30.28,10.0,SE,8.1,-,N/A,,Overcast,140,2014-01-09 13:55:00
8:15 AM,1.2,-6.3,71,30.28,10.0,SSE,9.2,-,N/A,,Overcast,150,2014-01-09 14:15:00
8:35 AM,1.8,-6.0,70,30.28,10.0,SSE,6.9,-,N/A,,Overcast,150,2014-01-09 14:35:00
8:55 AM,2.3,-5.8,69,30.28,10.0,SE,9.2,-,N/A,,Overcast,140,2014-01-09 14:55:00
9:15 AM,3.2,-5.1,68,30.28,10.0,ESE,8.1,-,N/A,,Overcast,120,2014-01-09 15:15:00
9:35 AM,4.1,-4.2,69,30.26,10.0,SE,10.4,-,N/A,,Overcast,140,2014-01-09 15:35:00
9:55 AM,4.8,-4.2,66,30.25,10.0,SE,10.4,18.4,N/A,,Overcast,140,2014-01-09 15:55:00
10:15 AM,5.0,-4.2,66,30.25,10.0,SSE,12.7,-,N/A,,Overcast,150,2014-01-09 16:15:00
10:35 AM,5.9,-3.8,64,30.24,10.0,SSE,9.2,-,N/A,,Scattered Clouds,150,2014-01-09 16:35:00
10:55 AM,7.9,-2.7,62,30.22,10.0,SSE,12.7,-,N/A,,Clear,150,2014-01-09 16:55:00
11:15 AM,9.1,-2.0,61,30.21,10.0,SSE,12.7,19.6,N/A,,Clear,150,2014-01-09 17:15:00
11:35 AM,9.5,-1.3,62,30.19,10.0,SSE,12.7,18.4,N/A,,Clear,150,2014-01-09 17:35:00
11:55 AM,10.9,-0.4,60,30.18,10.0,SSE,9.2,-,N/A,,Clear,150,2014-01-09 17:55:00
12:15 PM,12.2,0.5,60,30.17,10.0,SSE,11.5,-,N/A,,Clear,160,2014-01-09 18:15:00
12:35 PM,13.1,1.2,59,30.16,10.0,SSE,10.4,-,N/A,,Clear,150,2014-01-09 18:35:00
12:55 PM,14.5,3.4,61,30.15,10.0,SSE,12.7,-,N/A,,Clear,160,2014-01-09 18:55:00
1:15 PM,14.9,3.9,62,30.13,10.0,SSE,13.8,-,N/A,,Clear,160,2014-01-09 19:15:00
1:35 PM,14.9,4.8,64,30.13,10.0,South,12.7,-,N/A,,Clear,170,2014-01-09 19:35:00
1:55 PM,15.1,5.2,65,30.12,10.0,SSE,13.8,-,N/A,,Scattered Clouds,160,2014-01-09 19:55:00
2:35 PM,16.2,7.2,68,30.11,10.0,SSE,17.3,20.7,N/A,,Overcast,150,2014-01-09 20:35:00
2:55 PM,16.3,6.3,65,30.10,10.0,SE,11.5,-,N/A,,Overcast,140,2014-01-09 20:55:00
3:15 PM,15.4,5.9,66,30.10,10.0,SE,11.5,-,N/A,,Overcast,140,2014-01-09 21:15:00
3:35 PM,15.4,5.9,66,30.09,10.0,SE,8.1,-,N/A,,Overcast,130,2014-01-09 21:35:00
3:55 PM,15.3,5.9,67,30.07,10.0,SE,10.4,16.1,N/A,,Scattered Clouds,140,2014-01-09 21:55:00
4:15 PM,15.6,6.4,67,30.07,10.0,SE,10.4,16.1,N/A,,Clear,140,2014-01-09 22:15:00
5:15 PM,16.5,9.0,72,30.04,10.0,SE,12.7,-,N/A,,Clear,140,2014-01-09 23:15:00
5:35 PM,16.3,8.6,72,30.03,10.0,SSE,9.2,-,N/A,,Clear,150,2014-01-09 23:35:00
5:55 PM,16.5,8.6,71,30.02,10.0,SE,11.5,18.4,N/A,,Clear,140,2014-01-09 23:55:00
6:15 PM,16.2,8.8,73,30.02,10.0,SE,9.2,-,N/A,,Clear,140,2014-01-10 00:15:00
6:35 PM,15.8,8.4,73,30.01,10.0,SE,12.7,19.6,N/A,,Clear,140,2014-01-10 00:35:00
6:55 PM,15.6,8.6,74,30.01,10.0,SSE,10.4,-,N/A,,Clear,150,2014-01-10 00:55:00
7:15 PM,15.3,8.8,76,30.00,10.0,SE,9.2,-,N/A,,Clear,140,2014-01-10 01:15:00
7:35 PM,15.1,9.9,80,30.00,10.0,SSE,9.2,-,N/A,,Clear,150,2014-01-10 01:35:00
7:55 PM,14.9,10.4,82,30.00,10.0,SSE,10.4,-,N/A,,Clear,150,2014-01-10 01:55:00
8:15 PM,14.9,11.1,85,30.00,10.0,SSE,6.9,-,N/A,,Clear,150,2014-01-10 02:15:00
8:35 PM,14.9,11.5,86,29.99,10.0,SSE,8.1,-,N/A,,Scattered Clouds,150,2014-01-10 02:35:00
8:55 PM,14.9,12.4,90,29.99,10.0,SE,10.4,-,N/A,,Mostly Cloudy,140,2014-01-10 02:55:00
9:15 PM,15.4,13.1,90,29.98,10.0,SE,9.2,-,N/A,,Overcast,140,2014-01-10 03:15:00
9:35 PM,16.3,14.5,93,29.98,10.0,SE,10.4,-,N/A,,Overcast,140,2014-01-10 03:35:00
9:55 PM,16.7,14.9,93,29.97,7.0,SE,9.2,-,N/A,,Overcast,140,2014-01-10 03:55:00
10:15 PM,16.7,14.9,93,29.97,7.0,SE,9.2,-,N/A,,Overcast,140,2014-01-10 04:15:00
10:35 PM,16.9,15.3,93,29.96,7.0,SE,9.2,16.1,N/A,,Overcast,140,2014-01-10 04:35:00
10:55 PM,16.7,15.1,93,29.97,7.0,SSE,12.7,16.1,N/A,,Overcast,150,2014-01-10 04:55:00
11:15 PM,16.7,15.1,93,29.97,7.0,SSE,6.9,-,N/A,,Overcast,150,2014-01-10 05:15:00
11:35 PM,17.2,15.4,93,29.95,7.0,SSE,9.2,-,N/A,,Overcast,150,2014-01-10 05:35:00
11:55 PM,17.6,15.8,93,29.95,7.0,SSE,9.2,-,N/A,,Overcast,150,2014-01-10 05:55:00